Turin/Caselle Airport

Airport
ICAO code: 
LIMF
IATA Code: 
TRN
Summary
ICAO Region: 
EUR
Territory: 
Location: 
Caselle Torinese, Piedmont
Serving: 
Turin
Elevation: 
989 ft
Coordinates: 
Aerial View: 
45° 11' 50.886" N, 7° 38' 57.751" E
Metar
Observation
LIMF 200120Z 29003KT 8000 NSC 01/M02 Q1022
Station
Torino / Caselle
Date/Time
2022-01-20 01:20:00
Wind direction
290°
Wind speed
03 kts
Lowest cloud amount
nil significant cloud
Temperature
1°C
Dew point
-2°C
Humidity
80%
QNH
1022 hPa
Weather condition
n/a

International airport serving city of Turin.

Climatology

Humid “subtropical” climate (Köppen climate classification Cfa) - characterized by hot, humid summers and cool winters. Significant amounts of precipitation occur in all seasons in most areas. Winter rainfall (and sometimes snowfall) is associated with large storms that the westerlies steer from west to east. Most summer rainfall occurs during thunderstorms.

Runways

Designator Length Width Surface Rops
18/36 3300 60 ASP Yes/Yes
Airport map: 
Aerial View: 

SKYbrary Partners:

Safety knowledge contributed by: